Location: Unspecified
(48.8656°N, 0.0000°E)
Time: 05:03:54
(UTC+00:00)

Tiangong 2 - Pass Details

Date: 25 May 2019
Orbit: 376 x 389 km, 42.8° (Epoch: 19 June)

Event Time Altitude Azimuth Distance (km) Brightness Sun altitude
Rises 22:21:27 0° 262° (W) 2,236 5.1 -16.9°
Reaches altitude 10° 22:24:09 10° 237° (WSW) 1,381 3.8 -17.1°
Enters shadow 22:24:11 10° 237° (WSW) 1,373 3.7 -17.1°
